Volver al catálogo

OPS 4682 DEB

ActivoPO
NORAD 51495·DEBRIS·🇺🇸 United States

Lanzado Apr 3, 1965 desde Vandenberg Space Force Base

Loading…

Próximos Pases (próximas 24 horas)

TLE

ActualizadoSource: Space-Track

Época: Sep 12, 2026, 01:53 UTC

1 51495U 65027GF  26255.07865392  .00000481  00000-0  16438-2 0  9991
2 51495  90.2473   8.8551 0035451 221.9546 137.8857 12.96768531412245

Sigue OPS 4682 DEB en tiempo real con AllMySat

Download on the App Store